Weather History for Lakeland Region, FL

Change the Weather History Date:

Monday, November 19, 2012

  Actual Average Record
Temperature  
Mean Temperature 55 °F -  
Max Temperature 60 °F 74 °F 86 °F (1998)
Min Temperature 50 °F 57 °F 37 °F (2008)
Degree Days  
Heating Degree Days 10    
Growing Degree Days 5 (Base 50)    
Moisture  
Dew Point 51 °F    
Average Humidity 91    
Maximum Humidity 100    
Minimum Humidity 77    
Precipitation  
Precipitation 0.00 in - - ()
Sea Level Pressure  
Sea Level Pressure 30.15 in    
Wind  
Wind Speed 4 mph (North)    
Max Wind Speed 12 mph    
Max Gust Speed -    
Visibility 9 miles    
Events      
Averages and records for this station are not official NWS values.
T = Trace of Precipitation, MM = Missing Value Source: NWS Daily Summary

Daily Weather History Graph

Daily Weather History Graph

Search for Another Location

Airport:

Trip Planner

Search our weather history database for the weather conditions in past years. The results will help you decide how hot, cold, wet, or windy it might be!

Date:

Astronomy

Nov. 19, 2012 Rise Set
Actual Time 6:53 AM EST 5:33 PM EST
Civil Twilight 6:28 AM EST 5:58 PM EST
Nautical Twilight 5:59 AM EST 6:27 PM EST
Astronomical Twilight 5:31 AM EST 6:55 PM EST
Moon 12:06 PM EST (11/19) 11:45 PM EST (11/19)
Length of Visible Light 11h 30m
Length of Day
10h 40m
Waxing Crescent, 40% of the Moon is Illuminated
Nov 19
Waxing Crescent
Nov 20
First Quarter
Nov 28
Full
Dec 6
Last Quarter
Dec 13
New

Hourly Weather History & Observations

Time (EST) Temp. Dew Point Humidity Pressure Visibility Wind Dir Wind Speed Gust Speed Precip Events Conditions
12:15 AM 53.6 °F 51.8 °F 94% 30.17 in 10.0 mi Calm Calm - N/A   Clear
12:55 AM 51.8 °F 50.0 °F 94% 30.17 in 10.0 mi Calm Calm - N/A   Clear
1:15 AM 51.8 °F 50.0 °F 94% 30.17 in 10.0 mi North 3.5 mph - N/A   Clear
1:35 AM 51.8 °F 50.0 °F 94% 30.16 in 10.0 mi North 4.6 mph - N/A   Clear
1:55 AM 51.8 °F 51.8 °F 100% 30.16 in 10.0 mi North 3.5 mph - N/A   Clear
2:15 AM 51.8 °F 51.8 °F 100% 30.17 in 7.0 mi Calm Calm - N/A   Clear
2:35 AM 51.8 °F 50.0 °F 94% 30.17 in 7.0 mi NW 3.5 mph - N/A   Clear
2:55 AM 51.8 °F 50.0 °F 94% 30.17 in 7.0 mi NNW 3.5 mph - N/A   Clear
3:15 AM 51.8 °F 50.0 °F 94% 30.17 in 7.0 mi Calm Calm - N/A   Clear
3:35 AM 50.0 °F 50.0 °F 100% 30.17 in 7.0 mi North 5.8 mph - N/A   Clear
3:55 AM 50.0 °F 50.0 °F 100% 30.17 in 5.0 mi North 4.6 mph - N/A   Clear
4:15 AM 50.0 °F 50.0 °F 100% 30.17 in 10.0 mi North 5.8 mph - N/A   Clear
4:35 AM 50.0 °F 50.0 °F 100% 30.16 in 7.0 mi North 6.9 mph - N/A   Clear
4:55 AM 50.0 °F 50.0 °F 100% 30.16 in 7.0 mi North 4.6 mph - N/A   Clear
5:15 AM 50.0 °F 50.0 °F 100% 30.16 in 7.0 mi North 5.8 mph - N/A   Clear
5:35 AM 50.0 °F 50.0 °F 100% 30.16 in 7.0 mi North 6.9 mph - N/A   Clear
5:50 AM 51.8 °F 50.0 °F 94% 30.16 in 7.0 mi North 5.8 mph - N/A   Clear
6:50 AM 50.0 °F 48.2 °F 94% 30.17 in 7.0 mi North 5.8 mph - N/A   Scattered Clouds
7:15 AM 50.0 °F 50.0 °F 100% 30.17 in 7.0 mi North 5.8 mph - N/A   Overcast
7:53 AM 51.8 °F 51.8 °F 100% 30.18 in 5.0 mi North 11.5 mph - N/A   Overcast
8:57 AM 53.6 °F 51.8 °F 94% 30.18 in 7.0 mi North 6.9 mph - N/A   Overcast
9:54 AM 55.4 °F 53.6 °F 94% 30.19 in 7.0 mi North 9.2 mph - N/A   Overcast
10:50 AM 55.4 °F 53.6 °F 94% 30.19 in 7.0 mi North 9.2 mph - N/A   Overcast
11:50 AM 57.2 °F 53.6 °F 88% 30.16 in 7.0 mi NNW 5.8 mph - N/A   Overcast
12:45 PM 59.0 °F 53.6 °F 82% 30.13 in 15.0 mi NNE 6.9 mph - N/A   Overcast
1:47 PM 60.8 °F 53.6 °F 77% 30.11 in 15.0 mi North 5.8 mph - N/A   Overcast
2:53 PM 60.8 °F 53.6 °F 77% 30.10 in 15.0 mi North 5.8 mph - N/A   Overcast
3:50 PM 60.8 °F 53.6 °F 77% 30.10 in 15.0 mi NE 8.1 mph - N/A   Overcast
4:50 PM 59.0 °F 53.6 °F 82% 30.11 in 15.0 mi NNE 6.9 mph - N/A   Overcast
5:50 PM 59.0 °F 51.8 °F 77% 30.12 in 15.0 mi NNE 6.9 mph - N/A   Overcast
6:50 PM 59.0 °F 51.8 °F 77% 30.12 in 12.0 mi NNE 6.9 mph - N/A   Overcast
7:50 PM 57.2 °F 53.6 °F 88% 30.13 in 10.0 mi North 6.9 mph - N/A   Overcast
8:50 PM 57.2 °F 51.8 °F 82% 30.13 in 10.0 mi NNE 10.4 mph - N/A   Overcast
9:50 PM 57.2 °F 51.8 °F 82% 30.13 in 10.0 mi North 8.1 mph - N/A   Overcast
9:55 PM 55.4 °F 51.8 °F 88% 30.13 in 10.0 mi North 5.8 mph - N/A   Overcast
10:15 PM 55.4 °F 51.8 °F 88% 30.13 in 10.0 mi North 6.9 mph - N/A   Overcast
10:35 PM 55.4 °F 51.8 °F 88% 30.13 in 10.0 mi NNW 5.8 mph - N/A   Overcast
10:55 PM 55.4 °F 51.8 °F 88% 30.12 in 10.0 mi North 8.1 mph - N/A   Overcast
11:15 PM 55.4 °F 51.8 °F 88% 30.12 in 10.0 mi North 8.1 mph - N/A   Overcast
11:35 PM 55.4 °F 51.8 °F 88% 30.11 in 10.0 mi North 8.1 mph - N/A   Overcast
11:55 PM 55.4 °F 51.8 °F 88% 30.10 in 10.0 mi NNW 6.9 mph - N/A   Overcast